Mount Cook (NZMC)

Aerodrome — Elev 2153
New Zealand
S043.45.54.000 E170.07.59.999
Loading chart...

Current Weather

NZMC 210800Z 12003KT 11KM -RA FEW030 BKN036 OVC050 10/10 Q1009 RMK AUTO NZTU VAT

Published 49 minutes ago

Airport Activity

Loading chart...
Loading chart...

Positions

CallsignRadio Name / Freq / Voice Room / TypeFrequencyVoice RoomType
NZCH-D_CTR Christchurch Control
129.200
nzch-d_ctr
129.200nzch-d_ctr
NZCH-S_CTR Christchurch Control
129.300
nzch-s_ctr
129.300nzch-s_ctr
UNICOM NZZC UNICOM
122.800
unicom_nzzc
122.800unicom_nzzc

Charts